TimeMST,TemperatureF,Dew PointF,Humidity,Sea Level PressureIn,VisibilityMPH,Wind Direction,Wind SpeedMPH,Gust SpeedMPH,PrecipitationIn,Events,Conditions,WindDirDegrees,DateUTC
12:53 AM,30.9,26.1,82,29.94,10.0,WNW,16.1,-,N/A,,Overcast,290,2013-02-26 07:53:00
1:53 AM,32.0,24.1,73,29.92,10.0,WNW,13.8,-,N/A,,Overcast,300,2013-02-26 08:53:00
2:53 AM,30.9,23.0,72,29.94,10.0,WNW,8.1,-,N/A,,Overcast,300,2013-02-26 09:53:00
3:53 AM,30.9,21.0,67,29.94,10.0,NW,9.2,-,N/A,,Overcast,310,2013-02-26 10:53:00
4:53 AM,30.0,21.9,72,29.98,10.0,NW,6.9,-,N/A,,Overcast,310,2013-02-26 11:53:00
5:53 AM,30.0,19.9,66,30.04,10.0,NNW,12.7,-,N/A,,Overcast,330,2013-02-26 12:53:00
6:53 AM,28.0,19.9,72,30.06,10.0,WNW,8.1,-,N/A,,Overcast,290,2013-02-26 13:53:00
7:53 AM,28.9,19.9,69,30.09,10.0,WNW,15.0,-,N/A,,Overcast,300,2013-02-26 14:53:00
8:53 AM,30.0,19.9,66,30.11,10.0,WNW,11.5,-,N/A,,Overcast,300,2013-02-26 15:53:00
9:53 AM,30.9,18.0,59,30.10,10.0,NW,16.1,-,N/A,,Overcast,320,2013-02-26 16:53:00
10:53 AM,32.0,18.0,56,30.11,10.0,NW,16.1,-,N/A,,Overcast,320,2013-02-26 17:53:00
11:53 AM,33.1,19.9,59,30.11,10.0,NW,15.0,-,N/A,,Overcast,320,2013-02-26 18:53:00
12:53 PM,33.1,19.0,56,30.11,10.0,NW,16.1,-,N/A,,Mostly Cloudy,320,2013-02-26 19:53:00
1:53 PM,35.1,19.9,54,30.11,10.0,NW,12.7,-,N/A,,Clear,310,2013-02-26 20:53:00
2:53 PM,36.0,19.9,52,30.12,10.0,NW,12.7,-,N/A,,Clear,310,2013-02-26 21:53:00
3:53 PM,35.1,19.9,54,30.14,10.0,NW,11.5,-,N/A,,Clear,310,2013-02-26 22:53:00
4:53 PM,32.0,19.9,61,30.17,10.0,NW,9.2,-,N/A,,Scattered Clouds,310,2013-02-26 23:53:00
5:53 PM,30.9,19.9,64,30.19,10.0,NW,12.7,-,N/A,,Mostly Cloudy,310,2013-02-27 00:53:00
6:53 PM,28.9,19.9,69,30.22,10.0,WNW,12.7,-,N/A,,Mostly Cloudy,290,2013-02-27 01:53:00
7:53 PM,28.9,24.1,82,30.25,10.0,West,13.8,-,N/A,,Overcast,280,2013-02-27 02:53:00
8:53 PM,27.0,23.0,85,30.27,10.0,WNW,10.4,-,N/A,,Scattered Clouds,290,2013-02-27 03:53:00
9:53 PM,24.1,19.9,84,30.28,10.0,West,10.4,-,N/A,,Clear,280,2013-02-27 04:53:00
10:53 PM,23.0,18.0,81,30.29,10.0,North,-9999.0,-,N/A,,Clear,0,2013-02-27 05:53:00
11:53 PM,24.1,18.0,77,30.29,10.0,West,11.5,-,N/A,,Partly Cloudy,280,2013-02-27 06:53:00